[[{"header":{"parameterUnit":"m.s-1","parameterCategory":1,"la1":30.2991,"la2":30.254,"lo1":-89.0895,"lo2":-89.0444,"dy":0.0017,"dx":0.0017,"nx":28,"ny":28,"refTime":"2023-08-16T09:00:00:Z","depth":0,"parameterNumber":2,"parameterNumberName":"U-component_of_WINDS"},"data":[0,0,0,0,0,0,0,0,0,0,0,0,0,0,0,0,0,0,0,0,0,0,0,0,0,0,0,0,0,0,0,0,0,0,0,0,0,0,0,0,0,0,0,0,0,0,0,0,0,0,0,0,0,0,0,0,0,0,1.3894,1.3895,0,1.3991,1.3992,1.3993,1.4034,1.4034,1.4034,1.4034,1.4132,1.4134,1.4137,0,0,0,0,0,0,0,0,0,0,0,0,0,1.374,1.3742,1.3893,1.3895,1.3896,1.3991,1.3992,1.3994,1.4034,1.4034,1.4034,1.4034,1.4131,1.4134,1.4137,0,0,0,0,0,0,0,0,0,0,0,0,0,1.3819,1.3743,1.3893,1.3928,1.3932,1.3991,1.3992,1.3994,1.4035,1.4034,1.4034,1.4034,1.413,1.4134,1.4138,1.4169,0,0,1.415,1.4152,0,0,0,0,0,0,0,0,1.3814,1.3824,1.3921,1.3926,1.393,1.4,1.3974,1.4052,1.4035,1.3995,1.4034,1.4034,1.4088,1.4096,1.4114,1.4173,1.4177,1.4151,1.4153,1.4155,1.4156,0,0,0,0,0,0,0,1.3808,1.382,1.3932,1.3923,1.3928,1.3937,1.3948,1.3989,1.4042,1.3999,1.4002,1.4013,1.409,1.411,1.4117,1.4179,1.4151,1.4154,1.4157,1.4158,1.4267,1.4268,0,0,0,0,0,0,1.3798,1.3815,1.3929,1.3935,1.387,1.394,1.3953,1.3978,1.4042,1.4051,1.4013,1.4015,1.4103,1.4112,1.412,1.4161,1.4155,1.4159,1.4161,1.4267,1.4267,1.4268,0,0,0,0,0,0,1.3794,1.3807,1.3925,1.3876,1.3892,1.3943,1.3972,1.398,1.4,1.4053,1.4062,1.4024,1.4103,1.4115,1.4156,1.4165,1.4161,1.4165,1.4267,1.4267,1.4268,1.4241,0,0,0,0,0,0,1.379,1.3806,1.3819,1.3876,1.3894,1.396,1.3972,1.3982,1.4008,1.401,1.4065,1.4074,1.4104,1.415,1.4161,1.417,1.4168,1.4266,1.4267,1.4268,1.4242,1.4241,1.424,0,0,0,0,0,1.3784,1.3807,1.3819,1.3833,1.3912,1.396,1.3971,1.4005,1.4008,1.4021,1.4055,1.4072,1.4162,1.4154,1.4166,1.4177,1.4266,1.4267,1.4267,1.4242,1.4241,1.424,0,0,0,0,0,0,1.3749,1.3815,1.383,1.3872,1.391,1.3967,1.3985,1.4003,1.4041,1.4042,1.4083,1.4095,1.4133,1.4159,1.4149,1.421,1.4215,1.4219,1.4192,1.4191,1.4191,1.4183,1.4171,0,0,0,0,0,1.3746,1.3781,1.3837,1.3869,1.3888,1.3933,1.3955,1.3979,1.402,1.4036,1.4072,1.4111,1.4147,1.4171,1.4208,1.4246,1.4258,1.4259,1.4259,1.4258,1.426,1.4282,1.4283,1.4271,1.4271,1.4271,0,0,1.3741,1.3782,1.3801,1.3863,1.3896,1.393,1.3946,1.3982,1.4007,1.4041,1.4083,1.4111,1.4156,1.4196,1.4215,1.4219,1.4266,1.4259,1.4258,1.4261,1.4283,1.4284,1.4285,1.4272,1.4271,1.4271,0,0,1.3749,1.3784,1.3814,1.3846,1.3895,1.3925,1.3932,1.3986,1.4006,1.4049,1.4075,1.4105,1.4168,1.4199,1.4223,1.4242,1.426,1.4253,1.4249,1.427,1.4271,1.4272,1.4278,1.428,1.4255,1.4255,1.4255,0,1.3736,1.379,1.3827,1.3862,1.3888,1.392,1.3951,1.398,1.4038,1.4055,1.4058,1.4137,1.417,1.4218,1.4222,1.4241,1.425,1.4247,1.4268,1.4269,1.4271,1.4277,1.428,1.4254,1.4254,1.4254,1.4254,0,1.3771,1.3808,1.3826,1.3883,1.3911,1.3943,1.3984,1.4008,1.4029,1.4057,1.41,1.4141,1.4186,1.4199,1.4219,1.4249,1.425,1.426,1.4266,1.427,1.4277,1.428,1.4252,1.4253,1.4253,1.4253,0,0,1.3761,1.3836,1.3843,1.3868,1.3924,1.3953,1.3986,1.4031,1.405,1.4089,1.4118,1.417,1.4179,1.4206,1.423,1.4248,1.4261,1.4257,1.4258,1.4256,1.4295,1.4287,1.429,1.4272,1.4273,1.4274,1.4292,0,1.3776,1.3838,1.3872,1.3919,1.3953,1.3984,1.4013,1.405,1.4077,1.411,1.414,1.4176,1.4186,1.4203,1.4222,1.4255,1.4269,1.4254,1.4299,1.43,1.4287,1.4294,1.4285,1.4301,1.4295,1.4295,1.4295,0,1.3803,1.3841,1.3892,1.3944,1.3959,1.3985,1.4028,1.4059,1.4101,1.412,1.415,1.4174,1.4209,1.4212,1.4261,1.425,1.427,1.4289,1.429,1.4296,1.4298,1.4299,1.4306,1.4308,1.43,1.43,1.4299,0,1.3789,1.3854,1.3893,1.3914,1.3975,1.3992,1.4018,1.406,1.4085,1.4123,1.4139,1.418,1.4203,1.4234,1.4268,1.4267,1.4313,1.4319,1.4329,1.4328,1.4338,1.4336,1.4348,1.435,1.435,1.435,1.435,0,1.3803,1.3833,1.3888,1.3911,1.3945,1.3983,1.4016,1.4044,1.4081,1.411,1.4139,1.4166,1.4209,1.4241,1.4268,1.4304,1.4314,1.4329,1.4336,1.4327,1.4325,1.4341,1.4341,1.4351,1.4351,1.4351,1.4351,0,1.3794,1.3832,1.3876,1.3931,1.3945,1.3967,1.4014,1.4038,1.4067,1.4103,1.4114,1.4159,1.4198,1.4235,1.4287,1.4305,1.4341,1.435,1.4327,1.4331,1.4339,1.4338,1.4361,1.4366,1.4365,1.4365,1.4365,0,1.38,1.3824,1.3881,1.3903,1.3929,1.3964,1.3989,1.4027,1.4052,1.4102,1.4119,1.4161,1.4196,1.4256,1.4293,1.4333,1.4343,1.4348,1.4349,1.4339,1.4343,1.4341,1.4343,1.4347,1.4347,1.4347,1.4347,0,1.3807,1.3825,1.3861,1.3903,1.3933,1.3968,1.4004,1.402,1.4065,1.4091,1.4132,1.4159,1.4212,1.4252,1.4296,1.4322,1.4342,1.4346,1.4351,1.4342,1.4327,1.4335,1.4325,1.4346,1.4346,1.4346,1.4346,1.4346,1.3806,1.3828,1.3872,1.3911,1.3942,1.3975,1.4,1.4032,1.4067,1.4113,1.4133,1.4174,1.4215,1.4276,1.4302,1.4334,1.4338,1.4345,1.4347,1.4348,1.4346,1.4322,1.4342,1.4342,1.4342,1.4342,1.4342,0,1.3814,1.3844,1.3879,1.3929,1.3959,1.3976,1.4016,1.404,1.4076,1.4113,1.4147,1.4192,1.4232,1.4272,1.4313,1.4331,1.4341,1.434,1.4339,1.4345,1.4339,1.4331,1.4331,1.4331,1.4331,1.4331,1.4331,1.4331,1.3822,1.3861,1.3883,1.3937,1.3967,1.4007,1.4029,1.4059,1.4089,1.4139,1.4172,1.4198,1.4236,1.428,1.4316,1.4327,1.4341,1.4337,1.4351,1.4345,1.4345,1.4346,1.4339,1.434,1.434,1.4354,1.4354,1.4354]},{"header":{"parameterUnit":"m.s-1","parameterCategory":1,"la1":30.2991,"la2":30.254,"lo1":-89.0895,"lo2":-89.0444,"dy":0.0017,"dx":0.0017,"nx":28,"ny":28,"refTime":"2023-08-16T09:00:00:Z","depth":0,"parameterNumber":3,"parameterNumberName":"V-component_of_WINDS"},"data":[0,0,0,0,0,0,0,0,0,0,0,0,0,0,0,0,0,0,0,0,0,0,0,0,0,0,0,0,0,0,0,0,0,0,0,0,0,0,0,0,0,0,0,0,0,0,0,0,0,0,0,0,0,0,0,0,0,0,2.6806,2.6806,0,2.6778,2.6778,2.6778,2.6738,2.6737,2.6736,2.6736,2.6706,2.6706,2.6706,0,0,0,0,0,0,0,0,0,0,0,0,0,2.6824,2.6824,2.6806,2.6806,2.6806,2.6778,2.6778,2.6778,2.6738,2.6737,2.6736,2.6735,2.6706,2.6706,2.6706,0,0,0,0,0,0,0,0,0,0,0,0,0,2.6809,2.6824,2.6806,2.6783,2.678,2.6778,2.6778,2.6777,2.6738,2.6737,2.6736,2.6735,2.6707,2.6706,2.6706,2.6725,0,0,2.6705,2.6705,0,0,0,0,0,0,0,0,2.6809,2.6808,2.6786,2.6784,2.6781,2.676,2.6774,2.676,2.6738,2.6754,2.6736,2.6734,2.6725,2.6723,2.672,2.6724,2.6723,2.6705,2.6705,2.6705,2.6705,0,0,0,0,0,0,0,2.6811,2.6809,2.6795,2.6786,2.6783,2.6773,2.6769,2.6771,2.6746,2.6753,2.675,2.6747,2.6724,2.6721,2.6719,2.6722,2.6705,2.6705,2.6705,2.6705,2.6738,2.6739,0,0,0,0,0,0,2.6815,2.681,2.6796,2.6794,2.6793,2.6773,2.677,2.6768,2.6746,2.6741,2.6748,2.6745,2.6722,2.672,2.6718,2.6738,2.6705,2.6705,2.6705,2.6737,2.6739,2.674,0,0,0,0,0,0,2.6816,2.6815,2.6797,2.6801,2.6798,2.6774,2.6773,2.6768,2.6765,2.6742,2.6737,2.6749,2.6721,2.6719,2.6723,2.6736,2.6705,2.6705,2.6736,2.6738,2.6739,2.6778,0,0,0,0,0,0,2.6817,2.6815,2.6822,2.6802,2.6798,2.6803,2.6774,2.6768,2.6765,2.6761,2.6742,2.6738,2.672,2.6724,2.6723,2.6735,2.6705,2.6735,2.6737,2.6739,2.6775,2.678,2.6785,0,0,0,0,0,2.6817,2.6835,2.6823,2.6821,2.6807,2.6804,2.6802,2.6781,2.6766,2.6773,2.6758,2.6739,2.6735,2.6725,2.6724,2.6736,2.6734,2.6736,2.6739,2.6773,2.6779,2.6785,0,0,0,0,0,0,2.6857,2.6831,2.6818,2.6829,2.6819,2.6798,2.6806,2.6789,2.6782,2.6779,2.6753,2.6749,2.6757,2.6747,2.6736,2.6752,2.6732,2.6734,2.6758,2.6764,2.6769,2.677,2.6704,0,0,0,0,0,2.6867,2.6867,2.6845,2.6857,2.6853,2.683,2.6828,2.6813,2.6801,2.6796,2.6782,2.6771,2.6767,2.6765,2.6761,2.6774,2.6768,2.6782,2.6787,2.6791,2.6792,2.6797,2.6802,2.6747,2.6747,2.6747,0,0,2.6888,2.6874,2.6876,2.6864,2.6855,2.6855,2.6827,2.6828,2.6828,2.6797,2.68,2.6789,2.6775,2.6784,2.6787,2.6776,2.6806,2.6793,2.6797,2.6796,2.68,2.6805,2.6809,2.6749,2.6748,2.6748,0,0,2.6925,2.6915,2.6923,2.6914,2.69,2.6885,2.6887,2.6868,2.6859,2.6862,2.6838,2.6837,2.6832,2.6822,2.6817,2.685,2.6832,2.685,2.6874,2.6879,2.6883,2.6887,2.6897,2.6901,2.6852,2.6852,2.6852,0,2.6952,2.6952,2.693,2.6932,2.6928,2.69,2.6907,2.6899,2.6884,2.6881,2.6869,2.6861,2.685,2.6855,2.6863,2.686,2.6861,2.6851,2.6884,2.6888,2.6891,2.69,2.6904,2.6854,2.6854,2.6854,2.6853,0,2.6985,2.6985,2.6994,2.698,2.6976,2.6981,2.6959,2.6958,2.6943,2.6929,2.6931,2.6917,2.6908,2.6909,2.6894,2.6912,2.6905,2.6889,2.6868,2.6899,2.6907,2.691,2.6857,2.6856,2.6856,2.6855,0,0,2.7046,2.702,2.7023,2.7015,2.6998,2.6997,2.7,2.6992,2.6991,2.6982,2.6983,2.6979,2.6964,2.6957,2.6942,2.6946,2.6971,2.6929,2.6928,2.6936,2.6987,2.6998,2.7002,2.6959,2.696,2.696,2.6987,0,2.7078,2.7083,2.7063,2.7072,2.7071,2.7045,2.7047,2.7036,2.7024,2.702,2.7006,2.7002,2.6984,2.698,2.6983,2.6967,2.698,2.6965,2.6959,2.6959,2.6961,2.7007,2.7019,2.7045,2.6991,2.6991,2.6992,0,2.7117,2.7109,2.7118,2.7099,2.7098,2.7101,2.7091,2.7089,2.7075,2.7065,2.7058,2.704,2.7041,2.7021,2.7022,2.7012,2.7008,2.7,2.7,2.6998,2.6976,2.7004,2.7053,2.7057,2.6997,2.6997,2.6996,0,2.7158,2.715,2.7154,2.7149,2.7127,2.7129,2.712,2.7106,2.7102,2.7093,2.709,2.7082,2.7077,2.707,2.705,2.7038,2.7052,2.7031,2.7042,2.7043,2.7045,2.7045,2.7093,2.7046,2.7046,2.7046,2.7046,0,2.7195,2.7201,2.7172,2.7174,2.718,2.7157,2.7164,2.7152,2.7139,2.7138,2.7115,2.7115,2.7088,2.7085,2.7069,2.707,2.7069,2.706,2.7055,2.7061,2.7062,2.7057,2.7054,2.7047,2.7047,2.7046,2.7046,0,2.7241,2.7222,2.7224,2.7203,2.7198,2.7203,2.7185,2.7186,2.7172,2.7171,2.7169,2.7146,2.714,2.712,2.7109,2.7098,2.7104,2.7097,2.7109,2.7105,2.7117,2.7116,2.7162,2.7167,2.7119,2.7119,2.7119,0,2.7265,2.7269,2.7249,2.7246,2.7238,2.7235,2.7231,2.7208,2.7204,2.7189,2.7191,2.7184,2.7177,2.7168,2.715,2.7142,2.7132,2.7149,2.7131,2.7136,2.713,2.713,2.7129,2.7153,2.7154,2.7154,2.7155,0,2.7309,2.7299,2.7294,2.7285,2.7281,2.7273,2.7263,2.7263,2.7237,2.7234,2.7228,2.7222,2.7211,2.7203,2.7192,2.7181,2.7163,2.7161,2.7162,2.7168,2.7174,2.7169,2.7118,2.7159,2.7159,2.7158,2.7158,2.7158,2.7343,2.7345,2.7331,2.7326,2.7316,2.7308,2.7307,2.7293,2.7288,2.7277,2.7264,2.7259,2.7244,2.7227,2.7218,2.7213,2.7203,2.7206,2.7207,2.7207,2.7209,2.7176,2.7211,2.7211,2.7211,2.721,2.721,0,2.7385,2.7374,2.737,2.7357,2.7353,2.7337,2.7326,2.7322,2.7319,2.7307,2.73,2.7292,2.7285,2.7266,2.7256,2.7256,2.7247,2.7254,2.7253,2.725,2.722,2.7218,2.7261,2.7261,2.7261,2.7261,2.7261,2.7261,2.7406,2.7408,2.7396,2.7393,2.7382,2.7378,2.7372,2.7364,2.7354,2.7347,2.734,2.7329,2.7314,2.7302,2.7294,2.7289,2.7285,2.7294,2.7286,2.7258,2.7253,2.7248,2.7246,2.7294,2.7294,2.7317,2.7317,2.7317]}]]